• In Österreich
  • Länderverzeichnis
  • Für 7 Tage
  • Wassertemperatur
  • Satellitenkarten
  • Wetterkarte
  • News
  • Widgets
  • user-avatar
    Anmelden

    Stündliche Wetter Siercz

    Heute, 13 November, Dienstag

    Zeit Temperatur Niederschläge Wind Luftdruck Luftfeuchtigkeit
    00:00 +9°C° 0 mm 3 m/S 760 mmHg 85%
    01:00 +9°C° 0 mm 2 m/S 759 mmHg 88%
    02:00 +9°C° 0 mm 2 m/S 760 mmHg 87%
    03:00 +9°C° 0 mm 3 m/S 760 mmHg 86%
    04:00 +9°C° 0 mm 3 m/S 760 mmHg 85%
    05:00 +9°C° 0 mm 3 m/S 760 mmHg 85%
    06:00 +9°C° 0 mm 2 m/S 760 mmHg 85%
    07:00 +8°C° 0 mm 2 m/S 760 mmHg 87%
    08:00 +9°C° 0.2 mm 2 m/S 760 mmHg 85%
    09:00 +10°C° 0.2 mm 3 m/S 760 mmHg 82%
    10:00 +10°C° 0.2 mm 3 m/S 760 mmHg 80%
    11:00 +11°C° 1.2 mm 3 m/S 760 mmHg 82%
    12:00 +11°C° 1.2 mm 4 m/S 761 mmHg 85%
    13:00 +11°C° 1.2 mm 4 m/S 761 mmHg 88%
    14:00 +11°C° 0.9 mm 4 m/S 761 mmHg 89%
    15:00 +11°C° 0.9 mm 3 m/S 761 mmHg 90%
    16:00 +10°C° 0.9 mm 3 m/S 762 mmHg 91%
    17:00 +10°C° 0.3 mm 3 m/S 762 mmHg 89%
    18:00 +10°C° 0.3 mm 4 m/S 762 mmHg 87%
    19:00 +10°C° 0.3 mm 4 m/S 763 mmHg 85%
    20:00 +10°C° 0.1 mm 4 m/S 763 mmHg 85%
    21:00 +8°C° 0.1 mm 4 m/S 763 mmHg 85%
    22:00 +8°C° 0.1 mm 4 m/S 764 mmHg 84%
    23:00 +8°C° 0 mm 4 m/S 764 mmHg 85%

    Morgen, 14 November, Mittwoch

    Zeit Temperatur Niederschläge Wind Luftdruck Luftfeuchtigkeit
    00:00 +7°C° 0 mm 4 m/S 764 mmHg 86%
    01:00 +7°C° 0 mm 4 m/S 764 mmHg 87%
    02:00 +7°C° 0 mm 4 m/S 764 mmHg 88%
    03:00 +6°C° 0 mm 4 m/S 764 mmHg 89%
    04:00 +6°C° 0 mm 4 m/S 764 mmHg 90%
    05:00 +6°C° 0 mm 4 m/S 765 mmHg 91%
    06:00 +6°C° 0 mm 4 m/S 765 mmHg 91%
    07:00 +6°C° 0 mm 4 m/S 765 mmHg 91%
    08:00 +6°C° 0 mm 4 m/S 766 mmHg 90%
    09:00 +7°C° 0 mm 4 m/S 766 mmHg 88%
    10:00 +7°C° 0 mm 4 m/S 766 mmHg 87%
    11:00 +8°C° 0 mm 4 m/S 766 mmHg 85%
    12:00 +9°C° 0 mm 3 m/S 766 mmHg 84%
    13:00 +9°C° 0 mm 3 m/S 767 mmHg 82%
    14:00 +9°C° 0 mm 3 m/S 767 mmHg 84%
    15:00 +9°C° 0 mm 2 m/S 767 mmHg 85%
    16:00 +8°C° 0 mm 2 m/S 767 mmHg 87%
    17:00 +9°C° 0 mm 1 m/S 767 mmHg 89%
    18:00 +8°C° 0 mm 1 m/S 767 mmHg 91%
    19:00 +8°C° 0 mm 1 m/S 768 mmHg 92%
    20:00 +8°C° 0 mm 1 m/S 768 mmHg 93%
    21:00 +7°C° 0 mm 1 m/S 768 mmHg 94%
    22:00 +7°C° 0 mm 1 m/S 768 mmHg 94%
    23:00 +7°C° 0 mm 1 m/S 768 mmHg 95%

    übermorgen, 15 November, Donnerstag

    Zeit Temperatur Niederschläge Wind Luftdruck Luftfeuchtigkeit
    00:00 +6°C° 0 mm 1 m/S 768 mmHg 95%
    01:00 +5°C° 0 mm 0 m/S 768 mmHg 95%
    02:00 +5°C° 0 mm 0 m/S 768 mmHg 95%
    03:00 +5°C° 0 mm 0 m/S 768 mmHg 95%
    04:00 +5°C° 0 mm 0 m/S 768 mmHg 95%
    05:00 +6°C° 0 mm 1 m/S 768 mmHg 95%
    06:00 +6°C° 0 mm 1 m/S 768 mmHg 95%
    07:00 +5°C° 0 mm 1 m/S 768 mmHg 95%
    08:00 +6°C° 0 mm 1 m/S 769 mmHg 92%
    09:00 +6°C° 0 mm 2 m/S 769 mmHg 89%
    10:00 +7°C° 0 mm 2 m/S 769 mmHg 86%
    11:00 +8°C° 0 mm 2 m/S 769 mmHg 82%
    12:00 +9°C° 0 mm 2 m/S 769 mmHg 79%
    13:00 +10°C° 0 mm 2 m/S 769 mmHg 75%
    14:00 +9°C° 0 mm 2 m/S 769 mmHg 79%
    15:00 +8°C° 0 mm 2 m/S 769 mmHg 82%
    16:00 +7°C° 0 mm 2 m/S 769 mmHg 86%
    17:00 +7°C° 0 mm 2 m/S 769 mmHg 88%
    18:00 +6°C° 0 mm 2 m/S 769 mmHg 89%
    19:00 +6°C° 0 mm 2 m/S 770 mmHg 91%
    20:00 +5°C° 0 mm 2 m/S 770 mmHg 91%
    21:00 +5°C° 0 mm 2 m/S 770 mmHg 91%
    22:00 +5°C° 0 mm 2 m/S 770 mmHg 91%
    23:00 +5°C° 0 mm 2 m/S 770 mmHg 91%

    16 November, Freitag

    Zeit Temperatur Niederschläge Wind Luftdruck Luftfeuchtigkeit
    00:00 +4°C° 0 mm 2 m/S 770 mmHg 91%
    01:00 +3°C° 0 mm 3 m/S 771 mmHg 92%
    02:00 +4°C° 0 mm 2 m/S 771 mmHg 92%
    03:00 +4°C° 0 mm 2 m/S 771 mmHg 93%
    04:00 +4°C° 0 mm 2 m/S 771 mmHg 93%
    05:00 +4°C° 0 mm 2 m/S 771 mmHg 93%
    06:00 +3°C° 0 mm 2 m/S 771 mmHg 93%
    07:00 +3°C° 0 mm 2 m/S 771 mmHg 93%
    08:00 +3°C° 0 mm 3 m/S 772 mmHg 89%
    09:00 +4°C° 0 mm 3 m/S 772 mmHg 84%
    10:00 +5°C° 0 mm 3 m/S 772 mmHg 80%
    11:00 +7°C° 0 mm 3 m/S 772 mmHg 76%
    12:00 +8°C° 0 mm 3 m/S 772 mmHg 72%
    13:00 +8°C° 0 mm 3 m/S 772 mmHg 68%
    14:00 +8°C° 0 mm 3 m/S 772 mmHg 72%
    15:00 +7°C° 0 mm 3 m/S 772 mmHg 75%
    16:00 +6°C° 0 mm 2 m/S 772 mmHg 79%
    17:00 +5°C° 0 mm 3 m/S 772 mmHg 81%
    18:00 +4°C° 0 mm 3 m/S 772 mmHg 83%
    19:00 +3°C° 0 mm 3 m/S 773 mmHg 85%
    20:00 +3°C° 0 mm 3 m/S 773 mmHg 85%
    21:00 +3°C° 0 mm 3 m/S 773 mmHg 86%
    22:00 +2°C° 0 mm 3 m/S 773 mmHg 87%
    23:00 +2°C° 0 mm 3 m/S 773 mmHg 87%

    17 November, Samstag

    Zeit Temperatur Niederschläge Wind Luftdruck Luftfeuchtigkeit
    00:00 +2°C° 0 mm 3 m/S 773 mmHg 88%
    01:00 +2°C° 0 mm 3 m/S 773 mmHg 89%
    02:00 +1°C° 0 mm 3 m/S 773 mmHg 89%
    03:00 +1°C° 0 mm 3 m/S 773 mmHg 90%
    04:00 +1°C° 0 mm 3 m/S 773 mmHg 90%
    05:00 +1°C° 0 mm 3 m/S 773 mmHg 91%
    06:00 +1°C° 0 mm 3 m/S 774 mmHg 92%
    07:00 +1°C° 0 mm 3 m/S 774 mmHg 92%
    08:00 +2°C° 0 mm 3 m/S 774 mmHg 88%
    09:00 +2°C° 0 mm 3 m/S 774 mmHg 83%
    10:00 +3°C° 0 mm 3 m/S 774 mmHg 78%
    11:00 +4°C° 0 mm 3 m/S 774 mmHg 74%
    12:00 +5°C° 0 mm 3 m/S 774 mmHg 69%
    13:00 +5°C° 0 mm 3 m/S 774 mmHg 64%
    14:00 +5°C° 0 mm 3 m/S 774 mmHg 67%
    15:00 +4°C° 0 mm 3 m/S 773 mmHg 70%
    16:00 +4°C° 0 mm 2 m/S 773 mmHg 72%
    17:00 +3°C° 0 mm 3 m/S 773 mmHg 74%
    18:00 +3°C° 0 mm 3 m/S 773 mmHg 76%
    19:00 +2°C° 0 mm 3 m/S 773 mmHg 78%
    20:00 +3°C° 0 mm 2 m/S 773 mmHg 79%
    21:00 +2°C° 0 mm 2 m/S 773 mmHg 79%
    22:00 +2°C° 0 mm 2 m/S 773 mmHg 80%
    23:00 +2°C° 0 mm 2 m/S 773 mmHg 80%

    18 November, Sonntag

    Zeit Temperatur Niederschläge Wind Luftdruck Luftfeuchtigkeit
    00:00 +2°C° 0 mm 2 m/S 773 mmHg 80%
    01:00 +1°C° 0 mm 2 m/S 773 mmHg 80%
    02:00 +1°C° 0 mm 2 m/S 772 mmHg 80%
    03:00 +1°C° 0 mm 2 m/S 772 mmHg 79%
    04:00 +2°C° 0 mm 1 m/S 772 mmHg 79%
    05:00 +2°C° 0 mm 1 m/S 771 mmHg 80%
    06:00 +2°C° 0 mm 1 m/S 771 mmHg 80%
    07:00 +2°C° 0 mm 1 m/S 771 mmHg 81%
    08:00 +3°C° 0 mm 1 m/S 771 mmHg 77%
    09:00 +4°C° 0 mm 1 m/S 771 mmHg 73%
    10:00 +5°C° 0 mm 1 m/S 771 mmHg 69%
    11:00 +5°C° 0 mm 2 m/S 770 mmHg 69%
    12:00 +5°C° 0 mm 2 m/S 770 mmHg 69%
    13:00 +6°C° 0 mm 2 m/S 769 mmHg 69%
    14:00 +6°C° 0 mm 2 m/S 769 mmHg 74%
    15:00 +5°C° 0 mm 3 m/S 769 mmHg 79%
    16:00 +5°C° 0 mm 3 m/S 768 mmHg 84%
    17:00 +5°C° 0 mm 3 m/S 768 mmHg 83%
    18:00 +5°C° 0 mm 4 m/S 768 mmHg 81%
    19:00 +5°C° 0 mm 4 m/S 768 mmHg 79%
    20:00 +3°C° 0 mm 5 m/S 768 mmHg 77%
    21:00 +3°C° 0 mm 6 m/S 769 mmHg 74%
    22:00 +2°C° 0 mm 6 m/S 769 mmHg 71%
    23:00 +2°C° 0 mm 5 m/S 769 mmHg 70%
    Mehr zeigen